This demonstration page uses our WeatherBlox Daily Observations layout. Learn more.

Hourly Observations for May 4, 2019

Temp ( °F °C ) Dew Point ( °F °C ) Humidity (%) Winds ( mph kmh ) Pressure ( in mb ) Visibility ( mi km ) Precip ( " mm )
12:15 am 00:15 Mostly Cloudy 61 16 61 16 100 100 Calm 29.94 1014 10 16.0934 0 0
12:35 am 00:35 Cloudy 59 15 59 15 100 100 Calm 29.93 1013 5 8.0467 0 0
12:55 am 00:55 Cloudy 59 15 59 15 100 100 Calm 29.93 1013 0.5 0.80467 0 0
1:15 am 01:15 Cloudy 59 15 59 15 100 100 Calm 29.91 1013 0.25 0.402335 0 0
1:35 am 01:35 Cloudy 57 14 57 14 100 100 Calm 29.91 1013 1 1.60934 0 0
1:55 am 01:55 Cloudy 59 15 59 15 100 100 Calm 29.9 1012 0.25 0.402335 0 0
2:15 am 02:15 Cloudy 59 15 59 15 100 100 Calm 29.9 1012 0.25 0.402335 0 0
2:35 am 02:35 Cloudy 59 15 59 15 100 100 Calm 29.89 1012 0.75 1.207005 0 0
2:55 am 02:55 Cloudy 59 15 59 15 100 100 Calm 29.89 1012 1.25 2.011675 0 0
3:15 am 03:15 Cloudy 59 15 59 15 100 100 Calm 29.89 1012 0.75 1.207005 0 0
3:35 am 03:35 Cloudy 59 15 59 15 100 100 NNW 3 6 29.89 1012 7 11.26538 0 0
3:55 am 03:55 Cloudy 59 15 59 15 100 100 N 3 6 29.88 1012 7 11.26538 0 0
4:15 am 04:15 Cloudy 59 15 59 15 100 100 Calm 29.88 1012 7 11.26538 0 0
4:35 am 04:35 Cloudy 59 15 59 15 100 100 Calm 29.88 1012 7 11.26538 0 0
4:55 am 04:55 Cloudy 59 15 59 15 100 100 NNE 5 7 29.88 1012 7 11.26538 0 0
5:15 am 05:15 Cloudy 59 15 59 15 100 100 NNE 3 6 29.87 1011 5 8.0467 0 0
5:35 am 05:35 Cloudy 59 15 59 15 100 100 Calm 29.86 1011 5 8.0467 0 0
5:55 am 05:55 Cloudy 59 15 59 15 100 100 NNE 3 6 29.87 1011 5 8.0467 0 0
6:15 am 06:15 Cloudy 59 15 59 15 100 100 Calm 29.88 1012 4 6.43736 0 0
6:35 am 06:35 Cloudy 59 15 59 15 100 100 NNE 3 6 29.88 1012 3 4.82802 0 0
6:55 am 06:55 Cloudy 59 15 59 15 100 100 Calm 29.88 1012 2.5 4.02335 0 0
7:15 am 07:15 Cloudy 59 15 59 15 100 100 Calm 29.89 1012 2 3.21868 0 0
7:35 am 07:35 Cloudy 59 15 59 15 100 100 NNE 3 6 29.89 1012 2.5 4.02335 0 0
7:55 am 07:55 Cloudy 59 15 59 15 100 100 NNE 5 7 29.9 1012 2.5 4.02335 0 0
8:15 am 08:15 Cloudy 59 15 59 15 100 100 NNE 5 7 29.9 1012 3 4.82802 0 0
8:35 am 08:35 Cloudy 59 15 59 15 100 100 NNE 5 7 29.9 1012 4 6.43736 0 0
8:55 am 08:55 Cloudy 59 15 59 15 100 100 Calm 29.9 1012 3 4.82802 0 0
9:15 am 09:15 Cloudy 59 15 59 15 100 100 Calm 29.89 1012 3 4.82802 0 0
9:35 am 09:35 Cloudy 61 16 61 16 100 100 Calm 29.9 1012 4 6.43736 0 0
9:55 am 09:55 Cloudy 61 16 61 16 100 100 Calm 29.89 1012 4 6.43736 0 0
10:15 am 10:15 Cloudy 61 16 61 16 100 100 Calm 29.9 1012 5 8.0467 0 0
10:35 am 10:35 Cloudy 61 16 61 16 100 100 Calm 29.9 1012 5 8.0467 0 0
10:55 am 10:55 Cloudy 63 17 63 17 100 100 Calm 29.9 1012 7 11.26538 0 0
11:15 am 11:15 Cloudy 64 18 63 17 94 94 Calm 29.89 1012 10 16.0934 0 0
11:35 am 11:35 Cloudy 64 18 63 17 94 94 NNE 6 9 29.89 1012 10 16.0934 0 0
11:55 am 11:55 Cloudy 68 20 63 17 83 83 N 5 7 29.88 1012 10 16.0934 0 0
12:15 pm 12:15 Cloudy 68 20 63 17 83 83 N 6 9 29.88 1012 10 16.0934 0 0
12:35 pm 12:35 Cloudy 68 20 63 17 83 83 NNE 5 7 29.87 1012 10 16.0934 0 0
12:55 pm 12:55 Cloudy 70 21 63 17 78 78 NNW 7 11 29.87 1012 10 16.0934 0 0
1:15 pm 13:15 Cloudy 70 21 63 17 78 78 N 6 9 29.86 1011 10 16.0934 0 0
1:35 pm 13:35 Mostly Cloudy 70 21 64 18 83 83 N 3 6 29.86 1011 10 16.0934 0 0
1:55 pm 13:55 Mostly Cloudy 72 22 63 17 73 73 NE 3 6 29.85 1011 10 16.0934 0 0
2:15 pm 14:15 Cloudy 72 22 64 18 78 78 NNE 6 9 29.84 1010 10 16.0934 0 0
2:35 pm 14:35 Cloudy 72 22 64 18 78 78 ENE 3 6 29.84 1010 10 16.0934 0 0
2:55 pm 14:55 Cloudy 72 22 64 18 78 78 NE 3 6 29.84 1010 10 16.0934 0 0
3:15 pm 15:15 Partly Cloudy 72 22 64 18 78 78 ENE 6 9 29.83 1010 10 16.0934 0 0
3:35 pm 15:35 Partly Cloudy 72 22 64 18 78 78 ENE 5 7 29.83 1010 10 16.0934 0 0
3:55 pm 15:55 Sunny 72 22 64 18 78 78 ESE 3 6 29.82 1010 10 16.0934 0 0
4:15 pm 16:15 Sunny 72 22 64 18 78 78 ESE 6 9 29.8 1009 10 16.0934 0 0
4:35 pm 16:35 Sunny 72 22 64 18 78 78 E 3 6 29.8 1009 10 16.0934 0 0
4:55 pm 16:55 Sunny 73 23 64 18 74 74 ENE 3 6 29.8 1009 10 16.0934 0 0
5:15 pm 17:15 Sunny 73 23 64 18 74 74 Calm 29.8 1009 10 16.0934 0 0
5:35 pm 17:35 Sunny 73 23 64 18 74 74 ESE 3 6 29.79 1009 10 16.0934 0 0
5:55 pm 17:55 Sunny 73 23 64 18 74 74 Calm 29.79 1009 10 16.0934 0 0
6:15 pm 18:15 Sunny 73 23 64 18 74 74 Calm 29.79 1009 10 16.0934 0 0
6:35 pm 18:35 Mostly Cloudy 73 23 64 18 74 74 Calm 29.79 1009 10 16.0934 0 0
6:55 pm 18:55 Mostly Cloudy 73 23 66 19 78 78 Calm 29.79 1009 10 16.0934 0 0
7:15 pm 19:15 Partly Cloudy 72 22 66 19 83 83 ENE 3 6 29.78 1008 10 16.0934 0 0
7:35 pm 19:35 Partly Cloudy 72 22 66 19 83 83 Calm 29.78 1008 10 16.0934 0 0
7:55 pm 19:55 Cloudy 72 22 66 19 83 83 Calm 29.79 1009 10 16.0934 0 0
8:15 pm 20:15 Cloudy 72 22 66 19 83 83 ENE 3 6 29.79 1009 10 16.0934 0 0
8:35 pm 20:35 Cloudy 72 22 66 19 83 83 E 3 6 29.79 1009 10 16.0934 0 0
8:55 pm 20:55 Cloudy 70 21 66 19 88 88 NE 5 7 29.79 1009 10 16.0934 0 0
9:15 pm 21:15 Mostly Cloudy 70 21 66 19 88 88 Calm 29.8 1009 10 16.0934 0 0
9:35 pm 21:35 Cloudy 70 21 66 19 88 88 NNE 7 11 29.8 1009 10 16.0934 0 0
9:55 pm 21:55 Cloudy 68 20 64 18 88 88 NE 7 11 29.81 1010 10 16.0934 0 0
10:35 pm 22:35 Cloudy 64 18 64 18 100 100 NNE 5 7 29.82 1010 7 11.26538 0 0
10:55 pm 22:55 Cloudy 64 18 64 18 100 100 Calm 29.82 1010 5 8.0467 0 0
11:15 pm 23:15 Cloudy 64 18 64 18 100 100 Calm 29.82 1010 4 6.43736 0 0
11:35 pm 23:35 Cloudy with Nearby Thunderstorms 63 17 63 17 100 100 NNE 5 7 29.83 1010 5 8.0467 0 0
11:55 pm 23:55 Cloudy 63 17 63 17 100 100 NE 6 9 29.82 1010 3 4.82802 0 0

Powered by AerisWeather